GAOFEN-13 02

Last updated on Wed Oct 29 2025 00:02:51 GMT+0000 (Coordinated Universal Time)

1 55912U 23036A 25301.49697525 -.00000208 00000+0 00000+0 0 9993 2 55912 1.1355 333.1132 0003019 332.6382 58.5572 1.00272652 9775
UTC large
Height (km)
Speed (km/s)
/
Latitude / Longitude
Inclination (degrees)
Orbital Period (minutes)
Azimuth
Elevation
Range (km)
Doppler Factor

Next 0 passes for location: London (51.5072 / 0.1276)

Sorry there are no passes over London.